Airfield :
LOGIN :

Register | Disclaimer

   EN    FR    IT 

 










Legend :    VFR   Marginal VFR   IFR   Intensive IFR   Very Intensive IFR
Visi :
Ceiling :
>= 8 km
>= 3000ft
5 to 8 km
1000 to 3000 ft
1500m to 5 km
500 to 1000 ft
800 to 1500m
200 to 500 ft
< 800m
< 200 ft
Symbols :   Thunderstorms  Fog  Heavy snow  Heavy precipitations  Wind > 20 kt
SIGMETs :     Misc.  Thunderstorms  Icing  Turbulence  Mountain Waves  Volcanic Ashes







- Airport Elevation : 1470 ft


LSMD - Dubendorf Military

CURRENT METAR :
  • 100120Z AUTO 31004KT 260V340 7000NDV RA SCT018 BKN021 OVC024 05/04 Q1020 RMK

EXPIRED METARs :
  • 100050Z AUTO 28006KT 9999NDV FEW028 SCT041 05/03 Q1020 RMK
  • 100020Z AUTO 27010KT 9999NDV BKN056 06/03 Q1019 RMK
  • 092350Z AUTO 27006KT 9999NDV FEW010 SCT047 06/04 Q1019 RMK
  • 092320Z AUTO 29003KT 240V330 9999NDV SCT014 SCT031 06/05 Q1018 RMK
  • 092250Z AUTO 30003KT 260V350 8000NDV -RASN SCT012 SCT014 BKN020 06/05 Q1018 RMK

Expired Forecast.
No reported NOTAMs for that airfield.



MET'MAP, your aeronautical weather chart ! - Copyright ORBIFLY December 2007 - Disclaimer

ORBIFLY MET'MAP TEAM :

Programming & Development : Alexandra Zaïnal
Concept & Development : Baudouin d'Aumeries
Co-Development & Prog : Marc-Olivier Méhu
Technical & hardware support : Manuel Goepfert

Contact : metmap@orbifly.com




SOURCES & CREDITS :

   NOAA